Flag for U.S.A. Weather past 2 weeks in Carson City, Nevada, U.S.A.

Now
84 °F

Mostly cloudy.


Feels Like: 81 °F
Forecast: 49 / 84 °F
Wind: 17 mph from Northwest

Location: Reno Tahoe International Airport

Current Time: May 29, 2015 at 6:14:33 PM

Latest Report: May 29, 2015 at 5:55 PM


Visibility: 10 mi

Pressure: 29.82 "Hg

Humidity: 16%

Dew point: 33 °F

Location of Carson CityLocation

Historic Weather in Carson City — Graph

°F

Carson City temperature yesterday

Maximum temperature yesterday: 83 °F (at 3:55 PM)
Minimum temperature yesterday: 53 °F (at 5:55 AM)
Average temperature yesterday: 70 °F

Past Weeks' High & Low Weather Summary

 TemperatureHumidityPressure
High89 °F (May 29, 3:55 PM)96% (May 26, 12:55 AM)30.02 "Hg (May 26, 12:55 AM)
Low41 °F (May 15, 3:55 AM)11% (May 29, 2:55 PM)29.67 "Hg (May 14, 4:55 PM)
Average58 °F57%29.90 "Hg
* Reported May 14 4:55 PM — May 29 4:55 PM, Carson City, Weather by CustomWeather, © 2015

Note: Actual official high and low records may vary slightly from our data, if they occured in-between our weather recording intervals... More about our weather records

Advertising

Carson City weather history for previous 24 hours

 ConditionsComfort  
Time TempWeatherWind HumidityBarometerVisibility
4:55 PM
Fri, May 29
88 °FMostly cloudy.14 mph11%29.81 "Hg10 mi
3:55 PM89 °FPartly sunny.10 mph11%29.81 "Hg10 mi
2:55 PM87 °FBroken clouds.10 mph11%29.83 "Hg10 mi
1:55 PM85 °FBroken clouds.3 mph14%29.85 "Hg10 mi
12:55 PM84 °FScattered clouds.5 mph16%29.86 "Hg10 mi
11:55 AM83 °FPartly sunny.7 mph17%29.88 "Hg10 mi
10:55 AM77 °FScattered clouds.No wind26%29.92 "Hg10 mi
9:55 AM73 °FScattered clouds.No wind30%29.94 "Hg10 mi
8:55 AM68 °FScattered clouds.No wind39%29.96 "Hg10 mi
7:55 AM63 °FPassing clouds.No wind47%29.96 "Hg10 mi
6:55 AM60 °FPassing clouds.No wind52%29.96 "Hg10 mi
5:55 AM58 °FPassing clouds.6 mph56%29.95 "Hg10 mi
4:55 AM59 °FPassing clouds.5 mph54%29.93 "Hg10 mi
3:55 AM61 °FClear.3 mph50%29.94 "Hg10 mi
2:55 AM62 °FPassing clouds.3 mph50%29.93 "Hg10 mi
1:55 AM63 °FPassing clouds.No wind47%29.94 "Hg10 mi
12:55 AM66 °FPassing clouds.3 mph42%29.93 "Hg10 mi
11:55 PM
Thu, May 28
69 °FPassing clouds.6 mph38%29.93 "Hg10 mi
10:55 PM70 °FPassing clouds.3 mph37%29.93 "Hg10 mi
9:55 PM73 °FPassing clouds.8 mph33%29.93 "Hg10 mi
8:55 PM76 °FScattered clouds.13 mph22%29.90 "Hg10 mi
7:55 PM79 °FPartly sunny.10 mph17%29.88 "Hg10 mi
6:55 PM82 °FBroken clouds.6 mph15%29.87 "Hg10 mi
Weather by CustomWeather, © 2015

See weather overviewHow to use our weather pages